Weather History for Brownsville, TX

Change the Weather History Date:

Monday, October 29, 2012

  Actual Average Record
Temperature  
Mean Temperature 68 °F 74 °F  
Max Temperature 79 °F 84 °F 90 °F (1902)
Min Temperature 57 °F 64 °F 39 °F (1899)
Degree Days  
Heating Degree Days 0 0  
Month to date heating degree days 2 0  
Since 1 July heating degree days 2 0  
Cooling Degree Days 3 9  
Month to date cooling degree days 403 337  
Year to date cooling degree days 4415 3748  
Growing Degree Days 18 (Base 50)    
Moisture  
Dew Point 51 °F    
Average Humidity 59    
Maximum Humidity 78    
Minimum Humidity 39    
Precipitation  
Precipitation 0.00 in 0.08 in 1.73 in (1931)
Month to date precipitation 0.80 3.58  
Year to date precipitation 20.92 24.31  
Sea Level Pressure  
Sea Level Pressure 30.16 in    
Wind  
Wind Speed 6 mph (NNE)    
Max Wind Speed 15 mph    
Max Gust Speed 21 mph    
Visibility 10 miles    
Events      
T = Trace of Precipitation, MM = Missing Value Source: NWS Daily Summary

Daily Weather History Graph

Daily Weather History Graph

Search for Another Location

Airport:

Trip Planner

Search our weather history database for the weather conditions in past years. The results will help you decide how hot, cold, wet, or windy it might be!

Date:

Astronomy

Oct. 29, 2012 Rise Set
Actual Time 7:36 AM CDT 6:49 PM CDT
Civil Twilight 7:13 AM CDT 7:13 PM CDT
Nautical Twilight 6:45 AM CDT 7:40 PM CDT
Astronomical Twilight 6:18 AM CDT 8:07 PM CDT
Moon 6:46 PM CDT (10/29) 7:25 AM CDT (10/29)
Length of Visible Light 12h 00m
Length of Day
11h 12m
Full, 100% of the Moon is Illuminated
Oct 29
Full
Oct 29
Full
Nov 6
Last Quarter
Nov 13
New
Nov 20
First Quarter

Hourly Weather History & Observations

Time (CDT) Temp. Dew Point Humidity Pressure Visibility Wind Dir Wind Speed Gust Speed Precip Events Conditions
12:53 AM 64.9 °F 50.0 °F 58% 30.18 in 10.0 mi North 5.8 mph - N/A   Overcast
1:53 AM 64.0 °F 50.0 °F 60% 30.17 in 10.0 mi North 3.5 mph - N/A   Overcast
2:53 AM 63.0 °F 48.9 °F 60% 30.16 in 10.0 mi North 5.8 mph - N/A   Overcast
3:53 AM 62.1 °F 48.0 °F 60% 30.15 in 10.0 mi North 4.6 mph - N/A   Scattered Clouds
4:53 AM 59.0 °F 46.9 °F 64% 30.16 in 10.0 mi North 4.6 mph - N/A   Clear
5:53 AM 57.9 °F 46.0 °F 65% 30.16 in 10.0 mi North 5.8 mph - N/A   Clear
6:53 AM 57.9 °F 46.0 °F 65% 30.17 in 10.0 mi NNW 5.8 mph - N/A   Mostly Cloudy
7:53 AM 57.9 °F 46.9 °F 67% 30.19 in 10.0 mi NNW 5.8 mph - N/A   Scattered Clouds
8:53 AM 62.1 °F 48.0 °F 60% 30.21 in 10.0 mi NNW 5.8 mph - N/A   Overcast
9:53 AM 66.9 °F 48.9 °F 52% 30.22 in 10.0 mi North 5.8 mph - N/A   Overcast
10:53 AM 75.9 °F 50.0 °F 40% 30.22 in 10.0 mi NNE 6.9 mph - N/A   Clear
11:53 AM 75.0 °F 51.1 °F 43% 30.21 in 10.0 mi ENE 10.4 mph - N/A   Overcast
12:53 PM 77.0 °F 51.1 °F 40% 30.19 in 10.0 mi ENE 10.4 mph - N/A   Mostly Cloudy
1:53 PM 78.1 °F 52.0 °F 40% 30.16 in 10.0 mi ENE 11.5 mph 16.1 mph N/A   Partly Cloudy
2:53 PM 75.9 °F 53.1 °F 45% 30.14 in 10.0 mi ENE 10.4 mph 16.1 mph N/A   Mostly Cloudy
3:53 PM 77.0 °F 53.1 °F 43% 30.12 in 10.0 mi NE 9.2 mph 17.3 mph N/A   Clear
4:53 PM 75.9 °F 53.1 °F 45% 30.11 in 10.0 mi NE 10.4 mph - N/A   Clear
5:53 PM 73.9 °F 52.0 °F 46% 30.12 in 10.0 mi NE 8.1 mph - N/A   Clear
6:53 PM 70.0 °F 54.0 °F 57% 30.12 in 10.0 mi NE 4.6 mph - N/A   Clear
7:53 PM 66.9 °F 55.9 °F 68% 30.13 in 10.0 mi NE 4.6 mph - N/A   Clear
8:53 PM 64.9 °F 55.9 °F 73% 30.13 in 10.0 mi NE 4.6 mph - N/A   Clear
9:53 PM 64.9 °F 55.9 °F 73% 30.14 in 10.0 mi ENE 4.6 mph - N/A   Clear
10:53 PM 63.0 °F 55.9 °F 78% 30.15 in 10.0 mi ENE 4.6 mph - N/A   Clear
11:53 PM 63.0 °F 55.9 °F 78% 30.14 in 10.0 mi ENE 4.6 mph - N/A   Clear